View from above orbital plane
|
View from above satellite
|
Ground track
|
The orbit data is extracted from the following two-line orbital elements,
1 22208U 92073B 21061.39958593 .00000018 00000-0 35801-5 0 9997
2 22208 82.9150 95.9637 0033388 219.0518 152.7497 13.75160155422176
Epoch (UTC): | 02 March 2021 09:35:24 |
Eccentricity: | 0.0033388 |
inclination: | 82.9150° |
perigee height: | 956 km |
apogee height: | 1005 km |
right ascension of ascending node: | 95.9637° |
argument of perigee: | 219.0518° |
revolutions per day: | 13.75160155 |
mean anomaly at epoch: | 152.7497° |
orbit number at epoch: | 42217 |
The dashed part of the orbit path shows where the satellite is in the earth's shadow,
|
|